| time (UTC) | temp F | wind direction | speed MPH | gust MPH | rain 1hr in | rain 24hr in | rain mn in | humidity % | barometer mb |
| 20260831002600 | 74 | 0.0 | 0.0 | 0.00 | 0.00 | 0.00 | 89 | 1017.4 | |
| 20260831002055 | 74 | 0.0 | 0.0 | 0.00 | 0.00 | 0.00 | 89 | 1017.4 | |
| 20260831001607 | 74 | 0.0 | 0.0 | 0.00 | 0.00 | 0.00 | 89 | 1017.4 | |
| 20260831001059 | 74 | 0.0 | 0.0 | 0.00 | 0.00 | 0.00 | 89 | 1017.3 | |
| 20260831000558 | 74 | 0.0 | 0.0 | 0.00 | 0.00 | 0.00 | 88 | 1017.3 | |
| 20260831000108 | 74 | 0.0 | 0.0 | 0.00 | 0.00 | 0.00 | 88 | 1017.2 | |
| 20260830235557 | 74 | 0.0 | 0.0 | 0.00 | 0.00 | 0.00 | 88 | 1017.1 | |
| 20260830235057 | 74 | 0.0 | 0.0 | 0.00 | 0.00 | 0.00 | 88 | 1017.1 | |
| 20260830234603 | 74 | 0.0 | 0.0 | 0.00 | 0.00 | 0.00 | 88 | 1017.2 | |
| 20260830234055 | 74 | 0.0 | 0.0 | 0.00 | 0.00 | 0.00 | 87 | 1017.1 | |
| 20260830233558 | 74 | 0.0 | 0.0 | 0.00 | 0.00 | 0.00 | 87 | 1017.1 | |
| 20260830233107 | 74 | 0.0 | 0.0 | 0.00 | 0.00 | 0.00 | 87 | 1017.0 | |
| 20260830232558 | 74 | 0.0 | 0.0 | 0.00 | 0.00 | 0.00 | 87 | 1017.0 | |
| 20260830232056 | 74 | 0.0 | 0.0 | 0.00 | 0.00 | 0.00 | 87 | 1017.0 | |
| 20260830231610 | 74 | 0.0 | 0.0 | 0.00 | 0.00 | 0.00 | 87 | 1017.0 | |
| 20260830231057 | 74 | 0.0 | 0.0 | 0.00 | 0.00 | 0.00 | 86 | 1017.1 | |
| 20260830230557 | 74 | 0.0 | 0.0 | 0.00 | 0.00 | 0.00 | 86 | 1016.9 | |
| 20260830230111 | 74 | 0.0 | 0.0 | 0.00 | 0.00 | 0.00 | 86 | 1017.1 | |
| 20260830225557 | 74 | 0.0 | 0.0 | 0.00 | 0.00 | 0.00 | 86 | 1017.1 | |
| 20260830225057 | 74 | 0.0 | 0.0 | 0.00 | 0.00 | 0.00 | 85 | 1017.2 | |
| 20260830224634 | 74 | 5.0 | 7.0 | 0.00 | 0.00 | 0.00 | 85 | 1017.1 | |
| 20260830224055 | 75 | 257 | 3.0 | 10.0 | 0.00 | 0.00 | 0.00 | 85 | 1017.1 |
| 20260830223556 | 75 | 219 | 5.0 | 12.0 | 0.00 | 0.00 | 0.00 | 85 | 1017.2 |
| 20260830223102 | 75 | 196 | 4.0 | 12.0 | 0.00 | 0.00 | 0.00 | 85 | 1017.3 |
| 20260830222602 | 75 | 194 | 3.0 | 9.0 | 0.00 | 0.00 | 0.00 | 85 | 1017.2 |
| 20260830222058 | 75 | 225 | 4.0 | 10.0 | 0.00 | 0.00 | 0.00 | 84 | 1017.3 |
| 20260830221616 | 75 | 200 | 3.0 | 12.0 | 0.00 | 0.00 | 0.00 | 84 | 1017.5 |
| 20260830221057 | 75 | 208 | 4.0 | 12.0 | 0.00 | 0.00 | 0.00 | 84 | 1017.3 |
| 20260830220557 | 75 | 237 | 6.0 | 12.0 | 0.00 | 0.00 | 0.00 | 83 | 1017.2 |
| 20260830220106 | 75 | 237 | 4.0 | 13.0 | 0.00 | 0.00 | 0.00 | 83 | 1017.3 |
| 20260830215557 | 75 | 203 | 4.0 | 14.0 | 0.00 | 0.00 | 0.00 | 83 | 1017.3 |
| 20260830215056 | 75 | 211 | 6.0 | 14.0 | 0.00 | 0.00 | 0.00 | 82 | 1017.3 |
| 20260830214606 | 75 | 235 | 8.0 | 14.0 | 0.00 | 0.00 | 0.00 | 82 | 1017.3 |
| 20260830214057 | 76 | 182 | 4.0 | 13.0 | 0.00 | 0.00 | 0.00 | 82 | 1017.4 |
| 20260830213557 | 76 | 231 | 6.0 | 13.0 | 0.00 | 0.00 | 0.00 | 81 | 1017.2 |
| 20260830213100 | 76 | 224 | 4.0 | 11.0 | 0.00 | 0.00 | 0.00 | 81 | 1017.2 |
| 20260830212559 | 76 | 225 | 5.0 | 12.0 | 0.00 | 0.00 | 0.00 | 80 | 1017.3 |
| 20260830212059 | 76 | 230 | 4.0 | 13.0 | 0.00 | 0.00 | 0.00 | 80 | 1017.3 |
| 20260830211605 | 76 | 239 | 5.0 | 13.0 | 0.00 | 0.00 | 0.00 | 80 | 1017.5 |
| 20260830211059 | 76 | 225 | 5.0 | 10.0 | 0.00 | 0.00 | 0.00 | 79 | 1017.5 |
| 20260830210558 | 76 | 255 | 3.0 | 8.0 | 0.00 | 0.00 | 0.00 | 80 | 1017.5 |
| 20260830210108 | 76 | 250 | 3.0 | 9.0 | 0.00 | 0.00 | 0.00 | 79 | 1017.6 |
| 20260830205558 | 75 | 243 | 5.0 | 9.0 | 0.00 | 0.00 | 0.00 | 80 | 1017.6 |
| 20260830205101 | 75 | 225 | 3.0 | 10.0 | 0.00 | 0.00 | 0.00 | 80 | 1017.8 |
| 20260830204605 | 75 | 225 | 3.0 | 13.0 | 0.00 | 0.00 | 0.00 | 79 | 1017.9 |
| 20260830204058 | 75 | 213 | 4.0 | 13.0 | 0.00 | 0.00 | 0.00 | 79 | 1017.7 |
| 20260830203557 | 75 | 281 | 4.0 | 12.0 | 0.00 | 0.00 | 0.00 | 80 | 1017.8 |
| 20260830203100 | 76 | 211 | 3.0 | 14.0 | 0.00 | 0.00 | 0.00 | 80 | 1017.7 |
| 20260830202557 | 76 | 223 | 6.0 | 14.0 | 0.00 | 0.00 | 0.00 | 79 | 1017.7 |
| 20260830202057 | 76 | 186 | 5.0 | 14.0 | 0.00 | 0.00 | 0.00 | 79 | 1017.6 |
| 20260830201606 | 76 | 217 | 4.0 | 15.0 | 0.00 | 0.00 | 0.00 | 78 | 1017.7 |
| 20260830201056 | 76 | 245 | 3.0 | 15.0 | 0.00 | 0.00 | 0.00 | 78 | 1017.9 |
| 20260830200555 | 76 | 194 | 8.0 | 15.0 | 0.00 | 0.00 | 0.00 | 76 | 1017.8 |
| 20260830200106 | 77 | 236 | 5.0 | 12.0 | 0.00 | 0.00 | 0.00 | 76 | 1017.9 |
| 20260830195559 | 77 | 186 | 5.0 | 12.0 | 0.00 | 0.00 | 0.00 | 76 | 1017.8 |
| 20260830195102 | 77 | 248 | 7.0 | 13.0 | 0.00 | 0.00 | 0.00 | 75 | 1017.7 |
| 20260830194604 | 77 | 194 | 7.0 | 13.0 | 0.00 | 0.00 | 0.00 | 75 | 1017.8 |
| 20260830194100 | 78 | 228 | 4.0 | 14.0 | 0.00 | 0.00 | 0.00 | 74 | 1017.8 |
| 20260830193555 | 78 | 214 | 6.0 | 14.0 | 0.00 | 0.00 | 0.00 | 73 | 1017.9 |
| 20260830193059 | 78 | 211 | 4.0 | 17.0 | 0.00 | 0.00 | 0.00 | 73 | 1017.9 |
| 20260830192556 | 78 | 202 | 7.0 | 17.0 | 0.00 | 0.00 | 0.00 | 72 | 1018.0 |
| 20260830192058 | 79 | 176 | 6.0 | 17.0 | 0.00 | 0.00 | 0.00 | 71 | 1018.1 |
| 20260830191610 | 79 | 242 | 7.0 | 17.0 | 0.00 | 0.00 | 0.00 | 71 | 1018.2 |
| 20260830191057 | 79 | 189 | 8.0 | 17.0 | 0.00 | 0.00 | 0.00 | 69 | 1018.3 |
| 20260830190557 | 80 | 212 | 9.0 | 17.0 | 0.00 | 0.00 | 0.00 | 67 | 1018.3 |
| 20260830190106 | 80 | 213 | 6.0 | 14.0 | 0.00 | 0.00 | 0.00 | 68 | 1018.5 |
| 20260830185557 | 80 | 237 | 4.0 | 11.0 | 0.00 | 0.00 | 0.00 | 69 | 1018.3 |
| 20260830185059 | 80 | 207 | 4.0 | 20.0 | 0.00 | 0.00 | 0.00 | 70 | 1018.5 |
| 20260830184609 | 80 | 283 | 7.0 | 20.0 | 0.00 | 0.00 | 0.00 | 67 | 1018.6 |
| 20260830184057 | 80 | 279 | 9.0 | 19.0 | 0.00 | 0.00 | 0.00 | 66 | 1018.6 |
| 20260830183557 | 79 | 192 | 7.0 | 17.0 | 0.00 | 0.00 | 0.00 | 67 | 1018.8 |
| 20260830183107 | 79 | 173 | 8.0 | 18.0 | 0.00 | 0.00 | 0.00 | 63 | 1018.7 |
| 20260830182558 | 80 | 263 | 8.0 | 18.0 | 0.00 | 0.00 | 0.00 | 63 | 1018.9 |
| 20260830182056 | 79 | 230 | 6.0 | 18.0 | 0.00 | 0.00 | 0.00 | 65 | 1018.9 |
| 20260830181606 | 80 | 208 | 8.0 | 16.0 | 0.00 | 0.00 | 0.00 | 63 | 1019.0 |
| 20260830181055 | 79 | 246 | 6.0 | 15.0 | 0.00 | 0.00 | 0.00 | 65 | 1018.9 |
| 20260830180558 | 79 | 242 | 6.0 | 15.0 | 0.00 | 0.00 | 0.00 | 63 | 1019.1 |
| 20260830180107 | 79 | 254 | 8.0 | 14.0 | 0.00 | 0.00 | 0.00 | 62 | 1019.1 |
| 20260830175557 | 79 | 217 | 7.0 | 16.0 | 0.00 | 0.00 | 0.00 | 68 | 1019.1 |
| 20260830175100 | 79 | 180 | 7.0 | 16.0 | 0.00 | 0.00 | 0.00 | 64 | 1019.1 |
| 20260830174608 | 78 | 221 | 4.0 | 15.0 | 0.00 | 0.00 | 0.00 | 63 | 1019.3 |
| 20260830174055 | 78 | 240 | 5.0 | 15.0 | 0.00 | 0.00 | 0.00 | 61 | 1019.3 |
| 20260830173555 | 78 | 204 | 7.0 | 14.0 | 0.00 | 0.00 | 0.00 | 63 | 1019.5 |
| 20260830173110 | 78 | 248 | 5.0 | 13.0 | 0.00 | 0.00 | 0.00 | 60 | 1019.6 |
| 20260830172601 | 80 | 232 | 4.0 | 11.0 | 0.00 | 0.00 | 0.00 | 60 | 1019.5 |
| 20260830172055 | 80 | 194 | 5.0 | 15.0 | 0.00 | 0.00 | 0.00 | 59 | 1019.4 |
| 20260830171613 | 79 | 196 | 5.0 | 15.0 | 0.00 | 0.00 | 0.00 | 59 | 1019.5 |
| 20260830171056 | 80 | 269 | 3.0 | 15.0 | 0.00 | 0.00 | 0.00 | 59 | 1019.5 |
| 20260830170555 | 79 | 221 | 8.0 | 17.0 | 0.00 | 0.00 | 0.00 | 58 | 1019.6 |
| 20260830170109 | 79 | 218 | 7.0 | 17.0 | 0.00 | 0.00 | 0.00 | 60 | 1019.7 |
| 20260830165555 | 79 | 211 | 7.0 | 16.0 | 0.00 | 0.00 | 0.00 | 58 | 1019.6 |
| 20260830165055 | 79 | 252 | 7.0 | 16.0 | 0.00 | 0.00 | 0.00 | 60 | 1019.5 |
| 20260830164612 | 79 | 221 | 8.0 | 17.0 | 0.00 | 0.00 | 0.00 | 62 | 1019.5 |
| 20260830164057 | 78 | 190 | 5.0 | 17.0 | 0.00 | 0.00 | 0.00 | 66 | 1019.7 |
| 20260830163556 | 78 | 219 | 9.0 | 17.0 | 0.00 | 0.00 | 0.00 | 63 | 1019.7 |
| 20260830163107 | 77 | 196 | 5.0 | 15.0 | 0.00 | 0.00 | 0.00 | 65 | 1019.8 |
| 20260830162559 | 77 | 204 | 6.0 | 13.0 | 0.00 | 0.00 | 0.00 | 66 | 1019.9 |
| 20260830162057 | 77 | 205 | 5.0 | 13.0 | 0.00 | 0.00 | 0.00 | 65 | 1020.0 |
| 20260830161614 | 78 | 219 | 4.0 | 13.0 | 0.00 | 0.00 | 0.00 | 64 | 1019.9 |
| 20260830161056 | 78 | 259 | 3.0 | 8.0 | 0.00 | 0.00 | 0.00 | 69 | 1020.1 |
| 20260830160600 | 77 | 240 | 3.0 | 9.0 | 0.00 | 0.00 | 0.00 | 65 | 1020.1 |
| 20260830160105 | 78 | 277 | 4.0 | 9.0 | 0.00 | 0.00 | 0.00 | 66 | 1020.1 |
| 20260830155557 | 78 | 242 | 3.0 | 10.0 | 0.00 | 0.00 | 0.00 | 66 | 1020.0 |
| 20260830155057 | 78 | 238 | 2.0 | 12.0 | 0.00 | 0.00 | 0.00 | 68 | 1020.2 |
| 20260830154606 | 78 | 227 | 4.0 | 13.0 | 0.00 | 0.00 | 0.00 | 64 | 1020.4 |
| 20260830154059 | 77 | 265 | 6.0 | 13.0 | 0.00 | 0.00 | 0.00 | 62 | 1020.4 |
| 20260830153600 | 77 | 259 | 3.0 | 12.0 | 0.00 | 0.00 | 0.00 | 69 | 1020.4 |
| 20260830153106 | 77 | 241 | 4.0 | 12.0 | 0.00 | 0.00 | 0.00 | 69 | 1020.5 |
| 20260830152555 | 77 | 220 | 5.0 | 12.0 | 0.00 | 0.00 | 0.00 | 65 | 1020.5 |
| 20260830152058 | 78 | 194 | 5.0 | 10.0 | 0.00 | 0.00 | 0.00 | 66 | 1020.7 |
| 20260830151608 | 78 | 250 | 5.0 | 14.0 | 0.00 | 0.00 | 0.00 | 68 | 1020.8 |
| 20260830151055 | 77 | 265 | 5.0 | 14.0 | 0.00 | 0.00 | 0.00 | 67 | 1020.9 |
| 20260830150555 | 77 | 195 | 6.0 | 13.0 | 0.00 | 0.00 | 0.00 | 66 | 1020.9 |
| 20260830145557 | 77 | 171 | 5.0 | 12.0 | 0.00 | 0.00 | 0.00 | 66 | 1021.0 |
| 20260830145057 | 77 | 201 | 5.0 | 10.0 | 0.00 | 0.00 | 0.00 | 67 | 1020.9 |
| 20260830144602 | 77 | 238 | 5.0 | 10.0 | 0.00 | 0.00 | 0.00 | 67 | 1020.8 |
| 20260830144057 | 77 | 178 | 4.0 | 9.0 | 0.00 | 0.00 | 0.00 | 67 | 1020.9 |
| 20260830143556 | 77 | 0 | 2.0 | 9.0 | 0.00 | 0.00 | 0.00 | 66 | 1020.9 |
| 20260830143115 | 77 | 299 | 4.0 | 9.0 | 0.00 | 0.00 | 0.00 | 64 | 1020.9 |
| 20260830142558 | 77 | 196 | 1.0 | 8.0 | 0.00 | 0.00 | 0.00 | 66 | 1020.8 |
| 20260830142057 | 77 | 281 | 3.0 | 8.0 | 0.00 | 0.00 | 0.00 | 67 | 1020.8 |
| 20260830141605 | 76 | 298 | 1.0 | 8.0 | 0.00 | 0.00 | 0.00 | 71 | 1020.8 |
| 20260830141100 | 76 | 250 | 2.0 | 10.0 | 0.00 | 0.00 | 0.00 | 69 | 1020.9 |
| 20260830140558 | 77 | 252 | 2.0 | 10.0 | 0.00 | 0.00 | 0.00 | 71 | 1020.9 |
| 20260830140106 | 76 | 217 | 3.0 | 8.0 | 0.00 | 0.00 | 0.00 | 70 | 1021.0 |
| 20260830135557 | 75 | 245 | 1.0 | 7.0 | 0.00 | 0.00 | 0.00 | 71 | 1021.1 |
| 20260830135054 | 75 | 244 | 2.0 | 10.0 | 0.00 | 0.00 | 0.00 | 70 | 1021.3 |
| 20260830134600 | 75 | 279 | 3.0 | 10.0 | 0.00 | 0.00 | 0.00 | 65 | 1021.3 |
| 20260830134057 | 75 | 249 | 1.0 | 9.0 | 0.00 | 0.00 | 0.00 | 72 | 1021.2 |
| 20260830133555 | 74 | 276 | 3.0 | 9.0 | 0.00 | 0.00 | 0.00 | 74 | 1021.3 |
| 20260830133107 | 74 | 268 | 2.0 | 7.0 | 0.00 | 0.00 | 0.00 | 72 | 1021.2 |
| 20260830132555 | 73 | 269 | 2.0 | 7.0 | 0.00 | 0.00 | 0.00 | 74 | 1021.4 |
| 20260830132053 | 73 | 0 | 1.0 | 6.0 | 0.00 | 0.00 | 0.00 | 77 | 1021.5 |
| 20260830131606 | 72 | 0 | 0.0 | 0.0 | 0.00 | 0.00 | 0.00 | 77 | 1021.6 |
| 20260830131054 | 71 | 0 | 0.0 | 0.0 | 0.00 | 0.00 | 0.00 | 77 | 1021.7 |
| 20260830130554 | 71 | 0 | 0.0 | 0.0 | 0.00 | 0.00 | 0.00 | 81 | 1021.7 |
| 20260830130110 | 70 | 0 | 0.0 | 0.0 | 0.00 | 0.00 | 0.00 | 83 | 1021.7 |
| 20260830125559 | 69 | 0 | 0.0 | 0.0 | 0.00 | 0.00 | 0.00 | 84 | 1021.8 |
| 20260830125054 | 68 | 0 | 0.0 | 0.0 | 0.00 | 0.00 | 0.00 | 83 | 1021.8 |
| 20260830124602 | 68 | 0 | 0.0 | 0.0 | 0.00 | 0.00 | 0.00 | 83 | 1021.8 |
| 20260830124055 | 67 | 0 | 0.0 | 0.0 | 0.00 | 0.00 | 0.00 | 86 | 1021.7 |
| 20260830123555 | 67 | 0 | 0.0 | 0.0 | 0.00 | 0.00 | 0.00 | 86 | 1021.8 |
| 20260830123127 | 66 | 0 | 0.0 | 0.0 | 0.00 | 0.00 | 0.00 | 86 | 1021.8 |
| 20260830122557 | 66 | 0 | 0.0 | 0.0 | 0.00 | 0.00 | 0.00 | 86 | 1021.8 |
| 20260830122057 | 65 | 0 | 0.0 | 0.0 | 0.00 | 0.00 | 0.00 | 88 | 1021.8 |
| 20260830121608 | 65 | 0 | 0.0 | 0.0 | 0.00 | 0.00 | 0.00 | 90 | 1021.9 |
| 20260830121057 | 64 | 0 | 0.0 | 0.0 | 0.00 | 0.00 | 0.00 | 90 | 1021.8 |
| 20260830120553 | 64 | 0 | 0.0 | 0.0 | 0.00 | 0.00 | 0.00 | 90 | 1021.9 |
| 20260830115557 | 63 | 0 | 0.0 | 0.0 | 0.00 | 0.00 | 0.00 | 92 | 1021.8 |
| 20260830115057 | 63 | 0 | 0.0 | 0.0 | 0.00 | 0.00 | 0.00 | 93 | 1021.8 |
| 20260830114608 | 62 | 0 | 0.0 | 0.0 | 0.00 | 0.00 | 0.00 | 93 | 1021.9 |
| 20260830114054 | 62 | 0 | 0.0 | 0.0 | 0.00 | 0.00 | 0.00 | 93 | 1021.9 |
| 20260830113553 | 62 | 0 | 0.0 | 0.0 | 0.00 | 0.00 | 0.00 | 93 | 1021.8 |
| 20260830113058 | 61 | 0 | 0.0 | 0.0 | 0.00 | 0.00 | 0.00 | 94 | 1021.9 |
| 20260830112557 | 61 | 0 | 0.0 | 0.0 | 0.00 | 0.00 | 0.00 | 94 | 1021.7 |
| 20260830112055 | 60 | 0 | 0.0 | 0.0 | 0.00 | 0.00 | 0.00 | 94 | 1021.9 |
| 20260830111608 | 60 | 0 | 0.0 | 0.0 | 0.00 | 0.00 | 0.00 | 94 | 1021.8 |
| 20260830111057 | 60 | 0 | 0.0 | 0.0 | 0.00 | 0.00 | 0.00 | 94 | 1021.8 |
| 20260830110554 | 60 | 0 | 0.0 | 0.0 | 0.00 | 0.00 | 0.00 | 94 | 1021.6 |
| 20260830110108 | 60 | 0 | 0.0 | 0.0 | 0.00 | 0.00 | 0.00 | 94 | 1021.6 |
| 20260830105559 | 59 | 0 | 0.0 | 0.0 | 0.00 | 0.00 | 0.00 | 94 | 1021.7 |
| 20260830105054 | 59 | 0 | 0.0 | 0.0 | 0.00 | 0.00 | 0.00 | 94 | 1021.5 |
| 20260830104601 | 59 | 0.0 | 0.0 | 0.00 | 0.00 | 0.00 | 94 | 1021.6 | |
| 20260830104054 | 59 | 0.0 | 0.0 | 0.00 | 0.00 | 0.00 | 94 | 1021.6 | |
| 20260830103555 | 59 | 0.0 | 0.0 | 0.00 | 0.00 | 0.00 | 94 | 1021.6 | |
| 20260830103107 | 59 | 0.0 | 0.0 | 0.00 | 0.00 | 0.00 | 94 | 1021.5 | |
| 20260830102553 | 59 | 0.0 | 0.0 | 0.00 | 0.00 | 0.00 | 94 | 1021.6 | |
| 20260830102053 | 59 | 0.0 | 0.0 | 0.00 | 0.00 | 0.00 | 94 | 1021.6 | |
| 20260830101608 | 59 | 0.0 | 0.0 | 0.00 | 0.00 | 0.00 | 94 | 1021.5 | |
| 20260830101053 | 59 | 0.0 | 0.0 | 0.00 | 0.00 | 0.00 | 94 | 1021.5 | |
| 20260830100556 | 59 | 0.0 | 0.0 | 0.00 | 0.00 | 0.00 | 94 | 1021.6 | |
| 20260830100106 | 59 | 0.0 | 0.0 | 0.00 | 0.00 | 0.00 | 94 | 1021.5 | |
| 20260830095555 | 59 | 0.0 | 0.0 | 0.00 | 0.00 | 0.00 | 94 | 1021.6 | |
| 20260830095057 | 59 | 0.0 | 0.0 | 0.00 | 0.00 | 0.00 | 94 | 1021.5 | |
| 20260830094607 | 59 | 0.0 | 0.0 | 0.00 | 0.00 | 0.00 | 94 | 1021.6 | |
| 20260830094054 | 59 | 0.0 | 0.0 | 0.00 | 0.00 | 0.00 | 94 | 1021.6 | |
| 20260830093555 | 59 | 0.0 | 0.0 | 0.00 | 0.00 | 0.00 | 95 | 1021.7 | |
| 20260830093114 | 59 | 0.0 | 0.0 | 0.00 | 0.00 | 0.00 | 95 | 1021.7 | |
| 20260830092559 | 59 | 0.0 | 0.0 | 0.00 | 0.00 | 0.00 | 95 | 1021.8 | |
| 20260830092057 | 59 | 0.0 | 0.0 | 0.00 | 0.00 | 0.00 | 95 | 1021.9 | |
| 20260830091604 | 59 | 0.0 | 0.0 | 0.00 | 0.00 | 0.00 | 95 | 1021.9 | |
| 20260830091056 | 59 | 0.0 | 0.0 | 0.00 | 0.00 | 0.00 | 95 | 1021.9 | |
| 20260830090555 | 59 | 0.0 | 0.0 | 0.00 | 0.00 | 0.00 | 95 | 1021.9 | |
| 20260830090104 | 59 | 0.0 | 0.0 | 0.00 | 0.00 | 0.00 | 95 | 1021.9 | |
| 20260830085555 | 59 | 0.0 | 0.0 | 0.00 | 0.00 | 0.00 | 95 | 1021.8 | |
| 20260830085056 | 59 | 0.0 | 0.0 | 0.00 | 0.00 | 0.00 | 95 | 1021.9 | |
| 20260830084609 | 59 | 0.0 | 0.0 | 0.00 | 0.00 | 0.00 | 95 | 1021.8 | |
| 20260830084056 | 59 | 0.0 | 0.0 | 0.00 | 0.00 | 0.00 | 95 | 1021.9 | |
| 20260830083554 | 59 | 0.0 | 0.0 | 0.00 | 0.00 | 0.00 | 95 | 1022.0 | |
| 20260830083104 | 59 | 0.0 | 0.0 | 0.00 | 0.00 | 0.00 | 95 | 1022.0 | |
| 20260830082554 | 59 | 0.0 | 0.0 | 0.00 | 0.00 | 0.00 | 95 | 1021.9 | |
| 20260830082053 | 59 | 0.0 | 0.0 | 0.00 | 0.00 | 0.00 | 95 | 1022.1 | |
| 20260830081611 | 59 | 0.0 | 0.0 | 0.00 | 0.00 | 0.00 | 95 | 1022.0 | |
| 20260830081053 | 59 | 0.0 | 0.0 | 0.00 | 0.00 | 0.00 | 95 | 1022.1 | |
| 20260830080554 | 58 | 0.0 | 0.0 | 0.00 | 0.00 | 0.00 | 95 | 1021.9 | |
| 20260830080105 | 58 | 0.0 | 0.0 | 0.00 | 0.00 | 0.00 | 95 | 1022.0 | |
| 20260830075557 | 58 | 0.0 | 0.0 | 0.00 | 0.00 | 0.00 | 95 | 1022.0 | |
| 20260830075056 | 58 | 0.0 | 0.0 | 0.00 | 0.00 | 0.00 | 95 | 1022.1 | |
| 20260830074614 | 58 | 0.0 | 0.0 | 0.00 | 0.00 | 0.00 | 95 | 1022.1 | |
| 20260830074055 | 58 | 0.0 | 0.0 | 0.00 | 0.00 | 0.00 | 95 | 1022.0 | |
| 20260830073556 | 58 | 0.0 | 0.0 | 0.00 | 0.00 | 0.00 | 95 | 1022.0 | |
| 20260830073106 | 58 | 0.0 | 0.0 | 0.00 | 0.00 | 0.00 | 94 | 1022.1 | |
| 20260830072556 | 58 | 0.0 | 0.0 | 0.00 | 0.00 | 0.00 | 94 | 1022.1 | |
| 20260830072056 | 58 | 0.0 | 0.0 | 0.00 | 0.00 | 0.00 | 94 | 1022.1 | |
| 20260830071605 | 58 | 0.0 | 0.0 | 0.00 | 0.00 | 0.00 | 94 | 1022.2 | |
| 20260830071054 | 58 | 0.0 | 0.0 | 0.00 | 0.00 | 0.00 | 94 | 1022.0 | |
| 20260830070600 | 58 | 0.0 | 0.0 | 0.00 | 0.00 | 0.00 | 94 | 1022.2 | |
| 20260830070106 | 58 | 0.0 | 0.0 | 0.00 | 0.00 | 0.00 | 94 | 1022.1 | |
| 20260830065556 | 58 | 0.0 | 0.0 | 0.00 | 0.00 | 0.00 | 94 | 1022.2 | |
| 20260830065054 | 58 | 0.0 | 0.0 | 0.00 | 0.00 | 0.00 | 94 | 1022.1 | |
| 20260830064606 | 58 | 0.0 | 0.0 | 0.00 | 0.00 | 0.00 | 94 | 1022.1 | |
| 20260830064054 | 58 | 0.0 | 0.0 | 0.00 | 0.00 | 0.00 | 94 | 1022.0 | |
| 20260830063554 | 58 | 0.0 | 0.0 | 0.00 | 0.00 | 0.00 | 94 | 1022.1 | |
| 20260830063110 | 58 | 0.0 | 0.0 | 0.00 | 0.00 | 0.00 | 93 | 1022.0 | |
| 20260830062553 | 58 | 0.0 | 0.0 | 0.00 | 0.00 | 0.00 | 93 | 1022.1 | |
| 20260830062057 | 58 | 0.0 | 0.0 | 0.00 | 0.00 | 0.00 | 93 | 1022.1 | |
| 20260830061604 | 58 | 0.0 | 0.0 | 0.00 | 0.00 | 0.00 | 93 | 1022.0 | |
| 20260830061056 | 58 | 0.0 | 0.0 | 0.00 | 0.00 | 0.00 | 93 | 1021.9 | |
| 20260830060554 | 59 | 0.0 | 0.0 | 0.00 | 0.00 | 0.00 | 93 | 1021.9 | |
| 20260830055554 | 59 | 0.0 | 0.0 | 0.00 | 0.00 | 0.00 | 93 | 1021.7 | |
| 20260830055054 | 59 | 0.0 | 0.0 | 0.00 | 0.00 | 0.00 | 93 | 1021.7 | |
| 20260830054605 | 59 | 0.0 | 0.0 | 0.00 | 0.00 | 0.00 | 93 | 1021.6 | |
| 20260830054056 | 59 | 0.0 | 0.0 | 0.00 | 0.00 | 0.00 | 93 | 1021.8 | |
| 20260830053553 | 59 | 0.0 | 0.0 | 0.00 | 0.00 | 0.00 | 93 | 1021.8 | |
| 20260830053107 | 59 | 0.0 | 0.0 | 0.00 | 0.00 | 0.00 | 93 | 1021.9 | |
| 20260830052554 | 59 | 0.0 | 0.0 | 0.00 | 0.00 | 0.00 | 92 | 1021.9 | |
| 20260830052054 | 59 | 0.0 | 0.0 | 0.00 | 0.00 | 0.00 | 92 | 1021.8 | |
| 20260830051608 | 59 | 0.0 | 0.0 | 0.00 | 0.00 | 0.00 | 92 | 1021.8 | |
| 20260830051054 | 59 | 0.0 | 0.0 | 0.00 | 0.00 | 0.00 | 93 | 1022.0 | |
| 20260830050559 | 59 | 0.0 | 0.0 | 0.00 | 0.00 | 0.00 | 92 | 1022.0 | |
| 20260830050107 | 59 | 0.0 | 0.0 | 0.00 | 0.00 | 0.00 | 92 | 1022.1 | |
| 20260830045600 | 59 | 0.0 | 0.0 | 0.00 | 0.00 | 0.00 | 92 | 1022.1 | |
| 20260830045056 | 59 | 0.0 | 0.0 | 0.00 | 0.00 | 0.00 | 92 | 1022.0 | |
| 20260830044605 | 59 | 0.0 | 0.0 | 0.00 | 0.00 | 0.00 | 92 | 1022.0 | |
| 20260830044058 | 59 | 0.0 | 0.0 | 0.00 | 0.00 | 0.00 | 92 | 1021.9 | |
| 20260830043553 | 59 | 0.0 | 0.0 | 0.00 | 0.00 | 0.00 | 92 | 1021.9 | |
| 20260830043100 | 59 | 0.0 | 0.0 | 0.00 | 0.00 | 0.00 | 92 | 1021.9 | |
| 20260830042555 | 59 | 0.0 | 0.0 | 0.00 | 0.00 | 0.00 | 92 | 1022.0 | |
| 20260830042054 | 59 | 0.0 | 0.0 | 0.00 | 0.00 | 0.00 | 92 | 1022.0 | |
| 20260830041613 | 59 | 0.0 | 0.0 | 0.00 | 0.00 | 0.00 | 92 | 1022.0 | |
| 20260830041053 | 59 | 0.0 | 0.0 | 0.00 | 0.00 | 0.00 | 92 | 1021.9 | |
| 20260830040556 | 59 | 0.0 | 0.0 | 0.00 | 0.00 | 0.00 | 92 | 1021.9 | |
| 20260830040112 | 59 | 0.0 | 0.0 | 0.00 | 0.00 | 0.00 | 92 | 1021.8 | |
| 20260830035555 | 59 | 0.0 | 0.0 | 0.00 | 0.00 | 0.00 | 92 | 1021.8 | |
| 20260830035057 | 59 | 0.0 | 0.0 | 0.00 | 0.00 | 0.00 | 91 | 1021.9 | |
| 20260830034602 | 59 | 0.0 | 0.0 | 0.00 | 0.00 | 0.00 | 91 | 1021.9 | |
| 20260830034057 | 59 | 0.0 | 0.0 | 0.00 | 0.00 | 0.00 | 91 | 1021.9 | |
| 20260830033554 | 59 | 0.0 | 0.0 | 0.00 | 0.00 | 0.00 | 91 | 1021.9 | |
| 20260830033105 | 59 | 0.0 | 0.0 | 0.00 | 0.00 | 0.00 | 91 | 1021.9 | |
| 20260830032553 | 59 | 0.0 | 0.0 | 0.00 | 0.00 | 0.00 | 91 | 1021.9 | |
| 20260830032057 | 59 | 0.0 | 0.0 | 0.00 | 0.00 | 0.00 | 91 | 1021.7 | |
| 20260830031605 | 60 | 0.0 | 0.0 | 0.00 | 0.00 | 0.00 | 91 | 1021.9 | |
| 20260830031053 | 60 | 0.0 | 0.0 | 0.00 | 0.00 | 0.00 | 91 | 1021.9 | |
| 20260830030553 | 60 | 0.0 | 0.0 | 0.00 | 0.00 | 0.00 | 91 | 1021.8 | |
| 20260830030137 | 60 | 0.0 | 0.0 | 0.00 | 0.00 | 0.00 | 90 | 1021.8 | |
| 20260830025556 | 60 | 0.0 | 0.0 | 0.00 | 0.00 | 0.00 | 90 | 1021.9 | |
| 20260830025053 | 60 | 0.0 | 0.0 | 0.00 | 0.00 | 0.00 | 90 | 1021.8 | |
| 20260830024600 | 60 | 0.0 | 0.0 | 0.00 | 0.00 | 0.00 | 90 | 1021.8 | |
| 20260830024057 | 60 | 0.0 | 0.0 | 0.00 | 0.00 | 0.00 | 90 | 1021.7 | |
| 20260830023558 | 60 | 0.0 | 0.0 | 0.00 | 0.00 | 0.00 | 89 | 1021.7 | |
| 20260830023127 | 60 | 0.0 | 0.0 | 0.00 | 0.00 | 0.00 | 89 | 1021.7 | |
| 20260830022558 | 60 | 0.0 | 0.0 | 0.00 | 0.00 | 0.00 | 89 | 1021.7 | |
| 20260830022056 | 60 | 0.0 | 0.0 | 0.00 | 0.00 | 0.00 | 88 | 1021.8 | |
| 20260830021605 | 60 | 0.0 | 0.0 | 0.00 | 0.00 | 0.00 | 88 | 1021.9 | |
| 20260830021054 | 60 | 0.0 | 0.0 | 0.00 | 0.00 | 0.00 | 87 | 1021.8 | |
| 20260830020554 | 61 | 0.0 | 0.0 | 0.00 | 0.00 | 0.00 | 88 | 1021.9 | |
| 20260830015554 | 61 | 0.0 | 0.0 | 0.00 | 0.00 | 0.00 | 87 | 1021.7 | |
| 20260830015057 | 61 | 0.0 | 0.0 | 0.00 | 0.00 | 0.00 | 87 | 1021.7 | |
| 20260830014608 | 62 | 0.0 | 0.0 | 0.00 | 0.00 | 0.00 | 87 | 1021.7 | |
| 20260830014058 | 62 | 0.0 | 0.0 | 0.00 | 0.00 | 0.00 | 87 | 1021.6 | |
| 20260830013558 | 62 | 0.0 | 0.0 | 0.00 | 0.00 | 0.00 | 86 | 1021.6 | |
| 20260830013113 | 61 | 0.0 | 0.0 | 0.00 | 0.00 | 0.00 | 86 | 1021.5 | |
| 20260830012557 | 62 | 0.0 | 0.0 | 0.00 | 0.00 | 0.00 | 86 | 1021.5 | |
| 20260830012057 | 62 | 0.0 | 0.0 | 0.00 | 0.00 | 0.00 | 86 | 1021.3 | |
| 20260830011559 | 62 | 0.0 | 0.0 | 0.00 | 0.00 | 0.00 | 86 | 1021.3 | |
| 20260830011058 | 62 | 0.0 | 0.0 | 0.00 | 0.00 | 0.00 | 85 | 1021.1 | |
| 20260830010556 | 62 | 0.0 | 0.0 | 0.00 | 0.00 | 0.00 | 85 | 1021.3 | |
| 20260830010109 | 62 | 0.0 | 0.0 | 0.00 | 0.00 | 0.00 | 85 | 1021.2 | |
| 20260830005557 | 62 | 0.0 | 0.0 | 0.00 | 0.00 | 0.00 | 85 | 1021.1 | |
| 20260830005058 | 63 | 0.0 | 0.0 | 0.00 | 0.00 | 0.00 | 84 | 1021.2 | |
| 20260830004605 | 63 | 0.0 | 0.0 | 0.00 | 0.00 | 0.00 | 83 | 1021.2 | |
| 20260830004057 | 62 | 0.0 | 0.0 | 0.00 | 0.00 | 0.00 | 83 | 1021.1 | |
| 20260830003558 | 62 | 0.0 | 0.0 | 0.00 | 0.00 | 0.00 | 83 | 1021.0 | |
| 20260830003105 | 63 | 0.0 | 0.0 | 0.00 | 0.00 | 0.00 | 83 | 1021.1 |